Elwood, MO

8:37 AM CDT on July 24, 2016 (GMT -0500)
Rosecrans Memorial

Weather History for KSTJ - December, 2013

Change the Weather History Date:

Tuesday, December 3, 2013

  Actual Average Record
Temperature  
Mean Temperature 43 °F 34 °F  
Max Temperature 58 °F 44 °F 72 °F (2012)
Min Temperature 27 °F 23 °F 1 °F (1919)
Degree Days  
Heating Degree Days 22 31  
Month to date heating degree days 69 93  
Since 1 July heating degree days 1238 1204  
Cooling Degree Days 0 0  
Month to date cooling degree days 0 0  
Year to date cooling degree days 1285 1221  
Moisture  
Dew Point 35 °F    
Average Humidity 78    
Maximum Humidity 100    
Minimum Humidity 55    
Precipitation  
Precipitation 0.00 in 0.04 in 2.01 in (1944)
Month to date precipitation 0.00 0.13  
Year to date precipitation 30.82 34.21  
Sea Level Pressure  
Sea Level Pressure 29.57 in    
Wind  
Wind Speed 6 mph (SSE)    
Max Wind Speed 17 mph    
Max Gust Speed 21 mph    
Visibility 3 miles    
Events Fog    
T = Trace of Precipitation, MM = Missing Value Source: NWS Daily Summary

Daily Weather History Graph

Daily Weather History Graph

Search for Another Location

Airport or City:

Trip Planner

Search our weather history database for the weather conditions in past years. The results will help you decide how hot, cold, wet, or windy it might be!

Date:

Astronomy

Dec. 03, 2013 Rise Set
Actual Time 7:23 AM CST 4:55 PM CST
Civil Twilight 6:53 AM CST 5:25 PM CST
Nautical Twilight 6:20 AM CST 5:58 PM CST
Astronomical Twilight 5:47 AM CST 6:31 PM CST
Moon 7:54 AM CST (12/3) 5:59 PM CST (12/3)
Length of Visible Light 10h 31m
Length of Day
9h 31m
New Moon, 1% of the Moon is Illuminated
Dec 3
New Moon
Dec 9
First Quarter
Dec 17
Full
Dec 25
Last Quarter
Jan 1
New

Hourly Weather History & Observations

Time (CST) Temp. Windchill Dew Point Humidity Pressure Visibility Wind Dir Wind Speed Gust Speed Precip Events Conditions
12:04 AM 32.0 °F 28.7 °F 30.2 °F 93% 29.59 in 0.2 mi SE 3.5 mph - N/A Fog Fog
12:17 AM 32.0 °F 28.7 °F 30.2 °F 93% 29.59 in 1.0 mi SSE 3.5 mph - N/A   Mist
12:19 AM 33.8 °F 29.6 °F 30.2 °F 87% 29.59 in 2.5 mi SSE 4.6 mph - N/A   Partly Cloudy
12:26 AM 35.6 °F 31.7 °F 33.8 °F 93% 29.58 in 3.0 mi SSE 4.6 mph - N/A   Clear
12:39 AM 35.6 °F 30.7 °F 35.6 °F 100% 29.57 in 1.5 mi SSE 5.8 mph - N/A   Clear
12:53 AM 37.0 °F 34.5 °F 35.1 °F 93% 29.57 in 0.8 mi South 3.5 mph - N/A   Clear
12:56 AM 35.6 °F 32.8 °F 35.6 °F 100% 29.57 in 0.5 mi South 3.5 mph - N/A Fog Fog
1:22 AM 30.2 °F - 30.2 °F 100% 29.57 in 0.2 mi Calm Calm - N/A Fog Light Freezing Fog
1:32 AM 30.2 °F - 30.2 °F 100% 29.57 in 0.2 mi Calm Calm - N/A Fog Light Freezing Fog
1:41 AM 32.0 °F 28.7 °F 30.2 °F 93% 29.57 in 1.0 mi SE 3.5 mph - N/A   Mist
1:46 AM 30.2 °F 26.7 °F 30.2 °F 100% 29.57 in 2.0 mi SE 3.5 mph - N/A   Partly Cloudy
1:53 AM 30.9 °F 26.2 °F 30.0 °F 96% 29.57 in 1.0 mi SE 4.6 mph - N/A   Mist
2:00 AM 30.2 °F 25.4 °F 30.2 °F 100% 29.57 in 1.2 mi SE 4.6 mph - N/A   Clear
2:13 AM 26.6 °F - 26.6 °F 100% 29.57 in 0.5 mi Calm Calm - N/A Fog Light Freezing Fog
2:32 AM 30.2 °F - 28.4 °F 93% 29.57 in 0.2 mi Calm Calm - N/A Fog Light Freezing Fog
2:42 AM 30.2 °F - 30.2 °F 100% 29.57 in 0.2 mi Calm Calm - N/A Fog Light Freezing Fog
2:49 AM 30.2 °F 26.7 °F 28.4 °F 93% 29.57 in 0.2 mi SE 3.5 mph - N/A Fog Light Freezing Fog
2:53 AM 28.9 °F 25.2 °F 28.9 °F 100% 29.58 in 0.2 mi SE 3.5 mph - N/A Fog Light Freezing Fog
3:00 AM 30.2 °F - 28.4 °F 93% 29.57 in 0.2 mi Calm Calm - N/A Fog Light Freezing Fog
3:36 AM 30.2 °F 26.7 °F 30.2 °F 100% 29.56 in 1.0 mi SSE 3.5 mph - N/A   Clear
3:53 AM 35.1 °F 32.2 °F 34.0 °F 96% 29.56 in 1.5 mi SSE 3.5 mph - N/A   Clear
4:36 AM 33.8 °F - 33.8 °F 100% 29.55 in 0.5 mi Calm Calm - N/A Fog Fog
4:48 AM 35.6 °F 32.8 °F 33.8 °F 93% 29.55 in 1.0 mi SSE 3.5 mph - N/A   Clear
4:53 AM 35.1 °F 32.2 °F 34.0 °F 96% 29.56 in 1.2 mi SSE 3.5 mph - N/A   Clear
5:01 AM 33.8 °F 30.8 °F 32.0 °F 93% 29.55 in 0.5 mi SE 3.5 mph - N/A Fog Fog
5:12 AM 33.8 °F - 32.0 °F 93% 29.55 in 1.0 mi Calm Calm - N/A   Clear
5:20 AM 35.6 °F - 33.8 °F 93% 29.55 in 0.5 mi Calm Calm - N/A Fog Fog
5:28 AM 33.8 °F - 33.8 °F 100% 29.54 in 0.2 mi Calm Calm - N/A Fog Fog
5:37 AM 33.8 °F - 33.8 °F 100% 29.54 in 1.0 mi Calm Calm - N/A   Mist
5:44 AM 33.8 °F - 32.0 °F 93% 29.55 in 2.0 mi Calm Calm - N/A   Partly Cloudy
5:49 AM 32.0 °F - 30.2 °F 93% 29.55 in 1.0 mi Calm Calm - N/A   Mist
5:51 AM 32.0 °F - 30.2 °F 93% 29.55 in 0.8 mi Calm Calm - N/A   Clear
5:53 AM 33.1 °F 30.0 °F 30.9 °F 92% 29.56 in 0.5 mi SSE 3.5 mph - N/A Fog Fog
6:05 AM 35.6 °F 30.7 °F 33.8 °F 93% 29.54 in 1.0 mi SSE 5.8 mph - N/A   Clear
6:16 AM 35.6 °F 30.7 °F 35.6 °F 100% 29.55 in 2.5 mi South 5.8 mph - N/A   Partly Cloudy
6:35 AM 39.2 °F 34.2 °F 37.4 °F 93% 29.54 in 4.0 mi SSE 6.9 mph - N/A   Partly Cloudy
6:53 AM 39.0 °F 34.8 °F 37.9 °F 96% 29.55 in 4.0 mi South 5.8 mph - N/A   Partly Cloudy
7:53 AM 44.1 °F 38.1 °F 39.9 °F 85% 29.54 in 5.0 mi South 11.5 mph - N/A   Overcast
8:07 AM 44.6 °F 39.2 °F 41.0 °F 87% 29.54 in 5.0 mi SSW 10.4 mph - N/A   Mostly Cloudy
8:53 AM 45.0 °F 41.8 °F 41.0 °F 86% 29.54 in 6.0 mi SSE 5.8 mph - N/A   Mostly Cloudy
9:00 AM 44.6 °F 38.4 °F 41.0 °F 87% 29.56 in 6.0 mi West 12.7 mph 20.7 mph N/A   Overcast
9:53 AM 46.9 °F - 41.0 °F 80% 29.58 in 7.0 mi SSW 4.6 mph - N/A   Clear
10:53 AM 46.9 °F - 41.0 °F 80% 29.59 in 7.0 mi SSW 8.1 mph - N/A   Clear
11:53 AM 51.1 °F - 41.0 °F 68% 29.57 in 10.0 mi SW 8.1 mph - N/A   Clear
12:53 PM 55.0 °F - 41.0 °F 59% 29.54 in 10.0 mi SW 6.9 mph - N/A   Clear
1:53 PM 57.0 °F - 41.0 °F 55% 29.52 in 10.0 mi WSW 5.8 mph - N/A   Clear
2:53 PM 57.9 °F - 42.1 °F 56% 29.53 in 10.0 mi SW 3.5 mph - N/A   Clear
3:53 PM 57.0 °F - 42.1 °F 57% 29.55 in 10.0 mi Calm Calm - N/A   Clear
4:53 PM 50.0 °F - 39.9 °F 68% 29.57 in 10.0 mi NNW 4.6 mph - N/A   Clear
5:53 PM 45.0 °F 39.7 °F 37.0 °F 74% 29.59 in 10.0 mi North 10.4 mph - N/A   Clear
6:53 PM 44.1 °F 39.0 °F 37.0 °F 76% 29.60 in 10.0 mi North 9.2 mph - N/A   Clear
7:53 PM 42.1 °F 37.7 °F 36.0 °F 79% 29.61 in 8.0 mi North 6.9 mph - N/A   Clear
8:53 PM 37.9 °F 32.1 °F 34.0 °F 86% 29.62 in 5.0 mi NNW 8.1 mph - N/A   Clear
9:51 PM 37.4 °F 30.8 °F 35.6 °F 93% 29.63 in 3.0 mi North 9.2 mph - N/A   Scattered Clouds
9:53 PM 37.0 °F 30.4 °F 35.1 °F 93% 29.64 in 3.0 mi North 9.2 mph - N/A   Scattered Clouds
10:00 PM 37.4 °F 30.3 °F 35.6 °F 93% 29.63 in 3.0 mi North 10.4 mph - N/A   Mostly Cloudy
10:31 PM 39.2 °F 32.5 °F 37.4 °F 93% 29.62 in 2.5 mi NNE 10.4 mph - N/A   Overcast
10:53 PM 37.9 °F 32.1 °F 37.0 °F 97% 29.63 in 2.5 mi NNE 8.1 mph - N/A   Overcast
11:20 PM 37.4 °F 30.8 °F 35.6 °F 93% 29.62 in 1.5 mi NNE 9.2 mph - N/A   Overcast
11:53 PM 37.9 °F 32.1 °F 36.0 °F 93% 29.64 in 1.0 mi NNE 8.1 mph - N/A   Overcast